Location: Newark
(50.8922°N, 11.6094°E)
Time: 23:19:52
(UTC+00:00)

N. Korean satellite - Pass Details

Date: 28 January 2020
Orbit: 456 x 505 km, 97.2° (Epoch: 19 February)

Event Time Altitude Azimuth Distance (km) Brightness Sun altitude
Rises 05:57:47 0° 4° (N) 2,543 10.1 -9.3°
Reaches altitude 10° 06:00:01 10° 353° (N) 1,668 9.0 -9.0°
Maximum altitude 06:03:08 29° 292° (WNW) 926 7.4 -8.5°
Drops below altitude 10° 06:06:17 10° 232° (SW) 1,681 9.0 -8.1°
Sets 06:08:32 0° 221° (SW) 2,566 10.0 -7.7°
